KN6KS Weather Reports


Display with metric or nautical units.
time (UTC)temp
F
wind
direction
speed
MPH
gust
MPH
rain 1hr
in
rain 24hr
in
rain mn
in
humidity
%
barometer
mb
20260504100258 51 240 9.0 10.0 0.00 0.00 0.00 72 1011.7
20260504081651 51 245 18.0 23.0 0.00 0.00 0.00 74 1012.1
20260504081147 51 262 17.0 23.0 0.00 0.00 0.00 75 1011.9
20260504080643 51 251 16.0 20.0 0.00 0.00 0.00 75 1012.4
20260504080140 51 225 24.0 29.0 0.00 0.00 0.00 74 1012.1
20260504070108 51 235 10.0 11.0 0.00 0.00 0.00 74 1012.1
20260504050457 53 265 14.0 22.0 0.00 0.00 0.00 69 1012.0
20260504045954 53 244 12.0 16.0 0.00 0.00 0.00 69 1011.7
20260504045449 53 249 14.0 18.0 0.00 0.00 0.00 68 1011.8
20260504044946 53 253 13.0 15.0 0.00 0.00 0.00 68 1011.8
20260504044443 53 238 11.0 17.0 0.00 0.00 0.00 69 1011.4
20260504043941 54 259 15.0 20.0 0.00 0.00 0.00 68 1011.6
20260504043437 54 252 18.0 23.0 0.00 0.00 0.00 68 1011.5
20260504042935 54 239 15.0 20.0 0.00 0.00 0.00 68 1011.4
20260504042431 54 232 11.0 13.0 0.00 0.00 0.00 68 1011.5
20260504041928 54 243 12.0 17.0 0.00 0.00 0.00 68 1011.2
20260504041424 54 230 20.0 24.0 0.00 0.00 0.00 69 1011.4
20260504040920 54 225 17.0 24.0 0.00 0.00 0.00 69 1011.3
20260504040418 54 205 17.0 22.0 0.00 0.00 0.00 69 1011.1
20260504035914 54 229 21.0 25.0 0.00 0.00 0.00 69 1011.1
20260504035412 54 239 15.0 20.0 0.00 0.00 0.00 69 1010.9
20260504034908 54 220 19.0 24.0 0.00 0.00 0.00 69 1011.0
20260504034405 55 274 18.0 23.0 0.00 0.00 0.00 67 1011.0
20260504033902 55 248 17.0 22.0 0.00 0.00 0.00 68 1011.0
20260504033400 55 244 22.0 24.0 0.00 0.00 0.00 67 1011.0
20260504032857 55 231 14.0 16.0 0.00 0.00 0.00 67 1010.4
20260504032354 54 227 23.0 25.0 0.00 0.00 0.00 67 1010.3
20260504031850 54 273 23.0 25.0 0.00 0.00 0.00 69 1010.6
20260504031348 54 272 19.0 26.0 0.00 0.00 0.00 69 1010.5
20260504030844 54 228 22.0 29.0 0.00 0.00 0.00 69 1010.7
20260504030341 54 257 15.0 21.0 0.00 0.00 0.00 69 1010.5
20260504025837 55 289 9.0 11.0 0.00 0.00 0.00 69 1010.3
20260504025334 55 283 7.0 9.0 0.00 0.00 0.00 68 1010.2
20260504024831 55 249 16.0 21.0 0.00 0.00 0.00 68 1009.9
20260504024327 55 263 35.0 42.0 0.00 0.00 0.00 68 1009.7
20260504023824 55 241 22.0 25.0 0.00 0.00 0.00 68 1009.2
20260504023321 55 231 21.0 26.0 0.00 0.00 0.00 68 1009.3
20260504022817 55 261 25.0 32.0 0.00 0.00 0.00 67 1009.1
20260504022314 55 230 23.0 32.0 0.00 0.00 0.00 67 1009.0
20260504021810 56 247 26.0 37.0 0.00 0.00 0.00 67 1009.0
20260504021308 56 238 29.0 33.0 0.00 0.00 0.00 67 1009.0
20260504020804 56 231 28.0 34.0 0.00 0.00 0.00 66 1008.6
20260504020301 56 262 14.0 16.0 0.00 0.00 0.00 67 1008.7
20260504015757 56 243 17.0 23.0 0.00 0.00 0.00 67 1008.3
20260504015254 56 210 26.0 32.0 0.00 0.00 0.00 65 1008.4
20260504014750 56 225 28.0 37.0 0.00 0.00 0.00 66 1008.5
20260504014246 56 233 27.0 33.0 0.00 0.00 0.00 66 1008.7
20260504013744 56 239 28.0 33.0 0.00 0.00 0.00 65 1008.6
20260504013242 57 244 30.0 38.0 0.00 0.00 0.00 65 1008.4
20260504012738 57 219 31.0 38.0 0.00 0.00 0.00 65 1008.7
20260504012236 57 245 29.0 38.0 0.00 0.00 0.00 65 1008.5
20260504011732 57 256 25.0 30.0 0.00 0.00 0.00 65 1008.7
20260504011229 57 226 24.0 26.0 0.00 0.00 0.00 64 1008.4
20260504010725 57 231 22.0 25.0 0.00 0.00 0.00 64 1008.6
20260504010221 57 252 27.0 33.0 0.00 0.00 0.00 64 1008.4
20260504005718 57 239 26.0 33.0 0.00 0.00 0.00 64 1008.4
20260504005215 57 240 25.0 29.0 0.00 0.00 0.00 64 1008.2
20260504004713 57 222 30.0 33.0 0.00 0.00 0.00 64 1008.5
20260504004210 57 231 28.0 34.0 0.00 0.00 0.00 64 1008.4
20260504003706 58 248 33.0 39.0 0.00 0.00 0.00 63 1008.6
20260504003203 58 198 21.0 25.0 0.00 0.00 0.00 64 1008.4
20260504002700 58 221 32.0 39.0 0.00 0.00 0.00 63 1008.3
20260504002157 58 229 30.0 40.0 0.00 0.00 0.00 64 1008.2
20260504001655 58 236 30.0 32.0 0.00 0.00 0.00 64 1008.5
20260504001151 58 239 29.0 35.0 0.00 0.00 0.00 63 1008.4
20260504000648 58 247 29.0 35.0 0.00 0.00 0.00 64 1008.5
20260504000145 59 238 33.0 40.0 0.00 0.00 0.00 63 1008.5
20260503235643 59 250 16.0 18.0 0.00 0.00 0.00 63 1008.3
20260503235140 59 236 23.0 27.0 0.00 0.00 0.00 65 1008.3
20260503234638 59 228 21.0 25.0 0.00 0.00 0.00 64 1008.3
20260503234136 59 259 25.0 30.0 0.00 0.00 0.00 64 1008.3
20260503233632 59 194 24.0 29.0 0.00 0.00 0.00 65 1008.4
20260503233128 58 216 27.0 31.0 0.00 0.00 0.00 66 1008.4
20260503232625 58 237 32.0 41.0 0.00 0.00 0.00 66 1008.5
20260503232122 58 246 23.0 31.0 0.00 0.00 0.00 67 1008.6
20260503231620 58 262 33.0 40.0 0.00 0.00 0.00 67 1008.7
20260503231116 58 254 32.0 35.0 0.00 0.00 0.00 67 1008.7
20260503230614 58 228 27.0 31.0 0.00 0.00 0.00 67 1009.1
20260503230111 59 239 27.0 32.0 0.00 0.00 0.00 67 1009.0
20260503225609 58 249 27.0 35.0 0.00 0.00 0.00 68 1008.7
20260503225108 59 226 31.0 38.0 0.00 0.00 0.00 67 1008.8
20260503224606 58 250 26.0 31.0 0.00 0.00 0.00 68 1008.8
20260503224103 58 198 26.0 31.0 0.00 0.00 0.00 68 1009.3
20260503223601 58 242 29.0 34.0 0.00 0.00 0.00 69 1009.3
20260503223057 58 257 31.0 39.0 0.00 0.00 0.00 68 1009.2
20260503222555 59 257 30.0 35.0 0.00 0.00 0.00 67 1009.5
20260503222052 58 250 24.0 26.0 0.00 0.00 0.00 69 1009.3
20260503221550 58 233 24.0 27.0 0.00 0.00 0.00 69 1009.5
20260503221048 58 240 32.0 38.0 0.00 0.00 0.00 70 1009.5
20260503220544 58 230 26.0 30.0 0.00 0.00 0.00 70 1009.5
20260503220041 58 246 21.0 26.0 0.00 0.00 0.00 71 1009.5
20260503215538 58 230 20.0 25.0 0.00 0.00 0.00 70 1009.6
20260503215035 58 243 28.0 35.0 0.00 0.00 0.00 68 1009.6
20260503214533 58 246 23.0 29.0 0.00 0.00 0.00 71 1009.6
20260503214029 58 229 25.0 32.0 0.00 0.00 0.00 71 1009.5
20260503213528 58 253 25.0 31.0 0.00 0.00 0.00 70 1009.7
20260503213024 58 222 28.0 34.0 0.00 0.00 0.00 69 1009.6
20260503212521 59 227 30.0 38.0 0.00 0.00 0.00 68 1009.9
20260503212019 58 191 24.0 30.0 0.00 0.00 0.00 70 1009.7
20260503211516 58 249 21.0 26.0 0.00 0.00 0.00 71 1009.7
20260503211011 59 254 21.0 30.0 0.00 0.00 0.00 69 1009.9
20260503210508 58 194 21.0 26.0 0.00 0.00 0.00 70 1009.7
20260503210004 58 243 26.0 32.0 0.00 0.00 0.00 69 1009.9
20260503205500 59 210 21.0 29.0 0.00 0.00 0.00 70 1010.0
20260503204956 60 225 22.0 26.0 0.00 0.00 0.00 68 1009.8
20260503204454 60 230 26.0 30.0 0.00 0.00 0.00 65 1009.9
20260503203950 60 216 15.0 18.0 0.00 0.00 0.00 65 1009.9
20260503203448 62 253 20.0 23.0 0.00 0.00 0.00 64 1009.9
20260503202944 61 229 27.0 29.0 0.00 0.00 0.00 63 1010.1
20260503202443 61 212 20.0 25.0 0.00 0.00 0.00 62 1009.9
20260503201941 61 251 24.0 26.0 0.00 0.00 0.00 63 1010.0
20260503201438 62 249 22.0 27.0 0.00 0.00 0.00 62 1010.2
20260503200936 62 218 15.0 20.0 0.00 0.00 0.00 60 1010.3
20260503200432 62 248 15.0 18.0 0.00 0.00 0.00 60 1010.2
20260503195928 62 248 17.0 21.0 0.00 0.00 0.00 61 1010.3
20260503195426 63 188 16.0 21.0 0.00 0.00 0.00 59 1010.3
20260503194922 63 241 14.0 16.0 0.00 0.00 0.00 58 1010.4
20260503194419 63 244 20.0 25.0 0.00 0.00 0.00 59 1010.5
20260503193915 63 200 16.0 18.0 0.00 0.00 0.00 59 1010.7
20260503193410 64 247 21.0 24.0 0.00 0.00 0.00 59 1010.6
20260503192906 64 211 17.0 23.0 0.00 0.00 0.00 57 1010.6
20260503192402 65 214 19.0 22.0 0.00 0.00 0.00 53 1010.7
20260503191858 65 195 15.0 17.0 0.00 0.00 0.00 53 1010.6
20260503191356 64 238 20.0 25.0 0.00 0.00 0.00 54 1010.5
20260503190852 65 252 21.0 24.0 0.00 0.00 0.00 55 1010.6
20260503190350 64 178 14.0 18.0 0.00 0.00 0.00 54 1010.6
20260503185846 63 247 21.0 23.0 0.00 0.00 0.00 55 1010.9
20260503185343 63 268 14.0 17.0 0.00 0.00 0.00 59 1010.9
20260503184843 62 225 22.0 26.0 0.00 0.00 0.00 61 1010.6
20260503184339 61 244 22.0 25.0 0.00 0.00 0.00 61 1011.1
20260503183835 60 228 24.0 29.0 0.00 0.00 0.00 64 1011.0
20260503183332 60 256 19.0 23.0 0.00 0.00 0.00 65 1011.2
20260503182830 60 212 23.0 25.0 0.00 0.00 0.00 66 1011.0
20260503182329 59 213 17.0 22.0 0.00 0.00 0.00 68 1011.1
20260503181825 59 245 24.0 34.0 0.00 0.00 0.00 69 1011.2
20260503181322 59 217 22.0 27.0 0.00 0.00 0.00 68 1011.3
20260503180819 59 252 26.0 30.0 0.00 0.00 0.00 68 1011.3
20260503180317 59 241 26.0 34.0 0.00 0.00 0.00 68 1011.2
20260503175813 59 241 23.0 27.0 0.00 0.00 0.00 68 1011.2
20260503175311 59 231 24.0 29.0 0.00 0.00 0.00 68 1011.3
20260503174806 58 204 18.0 21.0 0.00 0.00 0.00 69 1011.2
20260503174305 59 248 22.0 24.0 0.00 0.00 0.00 68 1011.0
20260503173800 59 226 29.0 33.0 0.00 0.00 0.00 70 1011.4
20260503173256 59 257 25.0 30.0 0.00 0.00 0.00 67 1011.2
20260503172753 60 260 19.0 22.0 0.00 0.00 0.00 66 1010.9
20260503172250 60 270 16.0 18.0 0.00 0.00 0.00 66 1011.2
20260503171746 59 251 17.0 24.0 0.00 0.00 0.00 67 1010.9
20260503171244 59 204 22.0 26.0 0.00 0.00 0.00 66 1010.6
20260503170741 59 229 26.0 30.0 0.00 0.00 0.00 67 1010.5
20260503170237 59 227 18.0 25.0 0.00 0.00 0.00 67 1010.7
20260503160159 60 243 7.0 8.0 0.00 0.00 0.00 64 1010.6
20260503150629 63 115 2.0 3.0 0.00 0.00 0.00 54 1011.0
20260503150125 62 100 2.0 2.0 0.00 0.00 0.00 60 1010.9
20260503131020 55 225 2.0 2.0 0.00 0.00 0.00 76 1010.7
20260503130517 54 240 2.0 2.0 0.00 0.00 0.00 77 1010.5
20260503110407 59 63 3.0 5.0 0.00 0.00 0.00 66 1010.4